Time,TemperatureF,DewpointF,PressureIn,WindDirection,WindDirectionDegrees,WindSpeedMPH,WindSpeedGustMPH,Humidity,HourlyPrecipIn,Conditions,Clouds,dailyrainin,SoftwareType,DateUTC
2013-09-12 00:01:00,70.2,65.5,29.94,WSW,248,5.7,6.9,85,0.00,RA,,0.00,WeatherDisplay:10.37,2013-09-12 04:01:00,
2013-09-12 00:02:00,70.2,65.5,29.94,West,270,3.2,6.9,85,0.00,RA,,0.00,WeatherDisplay:10.37,2013-09-12 04:02:00,
2013-09-12 00:07:00,70.2,65.8,29.94,WSW,248,3.4,3.7,86,0.00,RA,,0.00,WeatherDisplay:10.37,2013-09-12 04:07:00,
2013-09-12 00:12:00,70.2,65.8,29.94,West,270,5.8,5.8,86,0.00,OVC,,0.00,WeatherDisplay:10.37,2013-09-12 04:12:00,
2013-09-12 00:17:00,70.2,65.8,29.96,WSW,248,3.8,5.8,86,0.00,OVC,,0.00,WeatherDisplay:10.37,2013-09-12 04:17:00,
2013-09-12 00:22:00,70.0,66.0,29.96,SW,225,4.4,5.8,87,0.00,OVC,,0.00,WeatherDisplay:10.37,2013-09-12 04:22:00,
2013-09-12 00:27:00,70.0,66.0,29.95,West,270,3.2,5.8,87,0.00,OVC,,0.01,WeatherDisplay:10.37,2013-09-12 04:27:00,
2013-09-12 00:32:00,70.0,66.3,29.95,SW,225,4.5,8.3,88,0.01,RA,,0.01,WeatherDisplay:10.37,2013-09-12 04:32:00,
2013-09-12 00:37:00,69.8,66.4,29.95,NNW,338,3.4,4.6,89,0.01,RA,,0.01,WeatherDisplay:10.37,2013-09-12 04:37:00,
2013-09-12 00:42:00,69.8,66.4,29.95,West,270,2.7,3.7,89,0.01,-RA,,0.01,WeatherDisplay:10.37,2013-09-12 04:42:00,
2013-09-12 00:47:00,69.8,66.7,29.95,West,270,1.4,3.5,90,0.02,-RA,,0.02,WeatherDisplay:10.37,2013-09-12 04:47:00,
2013-09-12 00:52:00,69.8,67.1,29.93,West,270,2.8,3.5,91,0.02,-RA,,0.02,WeatherDisplay:10.37,2013-09-12 04:52:00,
2013-09-12 00:57:00,69.8,67.4,29.93,SW,225,0.6,1.1,92,0.03,-RA,,0.03,WeatherDisplay:10.37,2013-09-12 04:57:00,
2013-09-12 01:02:00,69.8,67.7,29.91,West,270,0.1,3.5,93,0.04,-RA,,0.04,WeatherDisplay:10.37,2013-09-12 05:02:00,
2013-09-12 01:07:00,69.8,68.0,29.91,SW,225,2.4,3.5,94,0.04,-RA,,0.04,WeatherDisplay:10.37,2013-09-12 05:07:00,
2013-09-12 01:12:00,69.6,67.8,29.91,South,180,0.0,0.0,94,0.05,-RA,,0.05,WeatherDisplay:10.37,2013-09-12 05:12:00,
2013-09-12 01:17:00,69.6,68.1,29.90,NW,315,0.0,0.0,95,0.05,-RA,,0.05,WeatherDisplay:10.37,2013-09-12 05:17:00,
2013-09-12 01:22:00,69.6,68.1,29.90,SW,225,2.1,3.5,95,0.05,-RA,,0.05,WeatherDisplay:10.37,2013-09-12 05:22:00,
2013-09-12 01:27:00,69.6,68.1,29.89,South,180,1.9,3.5,95,0.05,-RA,,0.05,WeatherDisplay:10.37,2013-09-12 05:27:00,
2013-09-12 01:32:00,69.6,68.1,29.89,SE,135,3.2,3.2,95,0.04,-RA,,0.05,WeatherDisplay:10.37,2013-09-12 05:32:00,
2013-09-12 01:37:00,69.6,68.1,29.89,SE,135,1.1,2.3,95,0.04,-RA,,0.05,WeatherDisplay:10.37,2013-09-12 05:37:00,
2013-09-12 01:42:00,69.6,68.1,29.89,SSW,202,3.2,5.8,95,0.04,-RA,,0.05,WeatherDisplay:10.37,2013-09-12 05:42:00,
2013-09-12 01:47:00,69.6,68.1,29.89,West,270,2.0,3.5,95,0.03,-RA,,0.05,WeatherDisplay:10.37,2013-09-12 05:47:00,
2013-09-12 01:52:00,69.6,68.1,29.89,South,180,2.3,3.5,95,0.03,-RA,,0.05,WeatherDisplay:10.37,2013-09-12 05:52:00,
2013-09-12 01:57:00,69.4,67.9,29.89,North,360,2.6,3.5,95,0.02,-RA,,0.05,WeatherDisplay:10.37,2013-09-12 05:57:00,
2013-09-12 02:02:00,69.3,67.8,29.88,South,180,2.5,3.2,95,0.01,-RA,,0.05,WeatherDisplay:10.37,2013-09-12 06:02:00,
2013-09-12 02:07:00,69.3,67.8,29.88,SE,135,4.3,4.7,95,0.01,-RA,,0.05,WeatherDisplay:10.37,2013-09-12 06:07:00,
2013-09-12 02:12:00,69.1,67.6,29.88,SW,225,1.9,2.7,95,0.00,-RA,,0.05,WeatherDisplay:10.37,2013-09-12 06:12:00,
2013-09-12 02:17:00,68.9,67.4,29.86,West,270,1.3,1.7,95,0.00,-RA,,0.05,WeatherDisplay:10.37,2013-09-12 06:17:00,
2013-09-12 02:22:00,68.9,67.4,29.86,SSW,202,1.1,2.3,95,0.00,-RA,,0.05,WeatherDisplay:10.37,2013-09-12 06:22:00,
2013-09-12 02:27:00,68.7,67.2,29.86,WSW,248,1.9,3.5,95,0.00,-RA,,0.05,WeatherDisplay:10.37,2013-09-12 06:27:00,
2013-09-12 02:32:00,68.5,67.0,29.86,West,270,2.5,2.5,95,0.00,-RA,,0.05,WeatherDisplay:10.37,2013-09-12 06:32:00,
2013-09-12 02:37:00,68.5,67.0,29.86,SW,225,1.4,1.7,95,0.00,-RA,,0.05,WeatherDisplay:10.37,2013-09-12 06:37:00,
2013-09-12 02:42:00,68.4,66.9,29.86,West,270,1.6,2.3,95,0.00,-RA,,0.05,WeatherDisplay:10.37,2013-09-12 06:42:00,
2013-09-12 02:47:00,68.4,66.9,29.86,SE,135,1.2,2.3,95,0.00,-RA,,0.05,WeatherDisplay:10.37,2013-09-12 06:47:00,
2013-09-12 02:52:00,68.4,66.9,29.86,West,270,0.0,0.0,95,0.00,-RA,,0.05,WeatherDisplay:10.37,2013-09-12 06:52:00,
2013-09-12 02:57:00,68.2,66.7,29.86,SSE,158,1.3,1.7,95,0.00,-RA,,0.05,WeatherDisplay:10.37,2013-09-12 06:57:00,
2013-09-12 03:02:00,68.2,66.7,29.86,West,270,0.1,1.1,95,0.00,-RA,,0.05,WeatherDisplay:10.37,2013-09-12 07:02:00,
2013-09-12 03:07:00,68.2,66.7,29.86,SSE,158,0.0,0.0,95,0.00,-RA,,0.05,WeatherDisplay:10.37,2013-09-12 07:07:00,
2013-09-12 03:12:00,68.0,66.5,29.86,SSE,158,1.5,2.3,95,0.00,OVC,,0.05,WeatherDisplay:10.37,2013-09-12 07:12:00,
2013-09-12 03:17:00,68.0,66.5,29.86,WSW,248,0.3,1.1,95,0.00,OVC,,0.05,WeatherDisplay:10.37,2013-09-12 07:17:00,
2013-09-12 03:22:00,68.0,66.5,29.86,SSE,158,1.0,2.3,95,0.00,OVC,,0.05,WeatherDisplay:10.37,2013-09-12 07:22:00,
2013-09-12 03:27:00,68.0,66.5,29.85,WNW,292,0.0,1.1,95,0.00,OVC,,0.05,WeatherDisplay:10.37,2013-09-12 07:27:00,
2013-09-12 03:32:00,68.0,66.5,29.85,SSE,158,0.5,1.1,95,0.00,OVC,,0.05,WeatherDisplay:10.37,2013-09-12 07:32:00,
2013-09-12 03:37:00,68.0,66.5,29.85,SSE,158,2.7,3.5,95,0.00,OVC,,0.05,WeatherDisplay:10.37,2013-09-12 07:37:00,
2013-09-12 03:42:00,68.0,66.5,29.85,WSW,248,0.0,1.1,95,0.00,OVC,,0.05,WeatherDisplay:10.37,2013-09-12 07:42:00,
2013-09-12 03:47:00,68.0,66.5,29.85,WSW,248,0.8,1.1,95,0.00,OVC,,0.05,WeatherDisplay:10.37,2013-09-12 07:47:00,
2013-09-12 03:52:00,68.0,66.5,29.84,SSW,202,0.6,2.3,95,0.00,OVC,,0.05,WeatherDisplay:10.37,2013-09-12 07:52:00,
2013-09-12 03:57:00,68.0,66.5,29.84,SSW,202,2.1,2.7,95,0.00,OVC,,0.05,WeatherDisplay:10.37,2013-09-12 07:57:00,
2013-09-12 04:02:00,68.0,66.5,29.85,SSW,202,0.8,4.6,95,0.00,OVC,,0.05,WeatherDisplay:10.37,2013-09-12 08:02:00,
2013-09-12 04:07:00,68.0,66.5,29.85,SSE,158,0.7,1.1,95,0.00,OVC,,0.05,WeatherDisplay:10.37,2013-09-12 08:07:00,
2013-09-12 04:12:00,68.2,66.7,29.85,West,270,1.1,3.5,95,0.00,OVC,,0.05,WeatherDisplay:10.37,2013-09-12 08:12:00,
2013-09-12 04:17:00,68.2,66.4,29.84,SW,225,2.3,2.3,94,0.00,OVC,,0.05,WeatherDisplay:10.37,2013-09-12 08:17:00,
2013-09-12 04:22:00,68.2,66.4,29.84,WSW,248,1.6,2.3,94,0.00,OVC,,0.05,WeatherDisplay:10.37,2013-09-12 08:22:00,
2013-09-12 04:27:00,68.2,66.4,29.84,West,270,2.6,3.7,94,0.00,OVC,,0.05,WeatherDisplay:10.37,2013-09-12 08:27:00,
2013-09-12 04:32:00,68.2,66.4,29.84,SW,225,1.3,1.3,94,0.00,OVC,,0.05,WeatherDisplay:10.37,2013-09-12 08:32:00,
2013-09-12 04:37:00,68.2,66.4,29.84,WSW,248,0.3,2.2,94,0.00,OVC,,0.05,WeatherDisplay:10.37,2013-09-12 08:37:00,
2013-09-12 04:42:00,68.2,66.4,29.85,South,180,2.1,2.3,94,0.00,OVC,,0.05,WeatherDisplay:10.37,2013-09-12 08:42:00,
2013-09-12 04:47:00,68.2,66.4,29.85,SW,225,1.1,1.1,94,0.00,OVC,,0.05,WeatherDisplay:10.37,2013-09-12 08:47:00,
2013-09-12 04:52:00,68.2,66.4,29.85,WNW,292,1.5,2.3,94,0.00,OVC,,0.05,WeatherDisplay:10.37,2013-09-12 08:52:00,
2013-09-12 04:57:00,68.2,66.4,29.85,SSE,158,2.2,3.5,94,0.00,OVC,,0.05,WeatherDisplay:10.37,2013-09-12 08:57:00,
2013-09-12 05:02:00,68.2,66.4,29.84,SW,225,2.7,4.6,94,0.00,OVC,,0.05,WeatherDisplay:10.37,2013-09-12 09:02:00,
2013-09-12 05:07:00,68.2,66.4,29.84,WSW,248,2.7,2.7,94,0.00,OVC,,0.05,WeatherDisplay:10.37,2013-09-12 09:07:00,
2013-09-12 05:12:00,68.4,66.6,29.84,WSW,248,2.7,2.7,94,0.00,OVC,,0.05,WeatherDisplay:10.37,2013-09-12 09:12:00,
2013-09-12 05:17:00,68.5,66.4,29.85,WSW,248,3.4,3.5,93,0.00,OVC,,0.05,WeatherDisplay:10.37,2013-09-12 09:17:00,
2013-09-12 05:22:00,68.5,66.4,29.85,WSW,248,3.9,5.8,93,0.00,OVC,,0.05,WeatherDisplay:10.37,2013-09-12 09:22:00,
2013-09-12 05:27:00,68.9,66.5,29.85,West,270,4.1,4.6,92,0.00,OVC,,0.05,WeatherDisplay:10.37,2013-09-12 09:27:00,
2013-09-12 05:32:00,68.9,66.5,29.85,West,270,2.5,3.7,92,0.00,OVC,,0.05,WeatherDisplay:10.37,2013-09-12 09:32:00,
2013-09-12 05:37:00,68.9,66.5,29.85,WSW,248,1.7,3.5,92,0.00,OVC,,0.05,WeatherDisplay:10.37,2013-09-12 09:37:00,
2013-09-12 05:42:00,68.9,66.5,29.85,WSW,248,1.4,3.5,92,0.00,OVC,,0.05,WeatherDisplay:10.37,2013-09-12 09:42:00,
2013-09-12 05:47:00,68.9,66.5,29.85,WSW,248,1.3,3.5,92,0.00,OVC,,0.05,WeatherDisplay:10.37,2013-09-12 09:47:00,
2013-09-12 05:52:00,68.9,66.5,29.85,SSW,202,3.0,4.6,92,0.00,OVC,,0.05,WeatherDisplay:10.37,2013-09-12 09:52:00,
2013-09-12 05:57:00,68.9,66.5,29.85,SW,225,3.2,4.7,92,0.00,OVC,,0.05,WeatherDisplay:10.37,2013-09-12 09:57:00,
2013-09-12 06:02:00,68.9,66.5,29.85,NNW,338,1.8,3.2,92,0.00,OVC,,0.05,WeatherDisplay:10.37,2013-09-12 10:02:00,
2013-09-12 06:07:00,68.9,66.5,29.85,South,180,2.8,2.8,92,0.00,OVC,,0.05,WeatherDisplay:10.37,2013-09-12 10:07:00,
2013-09-12 06:12:00,68.9,66.5,29.85,West,270,1.6,2.3,92,0.00,OVC,,0.05,WeatherDisplay:10.37,2013-09-12 10:12:00,
2013-09-12 06:17:00,68.9,66.5,29.85,West,270,4.2,5.8,92,0.00,OVC,,0.05,WeatherDisplay:10.37,2013-09-12 10:17:00,
2013-09-12 06:22:00,68.9,66.5,29.85,WSW,248,2.4,3.7,92,0.00,OVC,,0.05,WeatherDisplay:10.37,2013-09-12 10:22:00,
2013-09-12 06:27:00,69.1,66.7,29.85,South,180,4.2,4.6,92,0.00,OVC,,0.05,WeatherDisplay:10.37,2013-09-12 10:27:00,
2013-09-12 06:32:00,69.3,66.9,29.85,SSW,202,2.5,3.5,92,0.00,OVC,,0.05,WeatherDisplay:10.37,2013-09-12 10:32:00,
2013-09-12 06:37:00,69.4,67.0,29.85,South,180,2.5,3.5,92,0.00,OVC,,0.05,WeatherDisplay:10.37,2013-09-12 10:37:00,
2013-09-12 06:42:00,69.4,67.0,29.85,SW,225,2.3,3.5,92,0.00,OVC,,0.05,WeatherDisplay:10.37,2013-09-12 10:42:00,
2013-09-12 06:47:00,69.3,66.9,29.85,SW,225,1.8,2.3,92,0.00,OVC,,0.05,WeatherDisplay:10.37,2013-09-12 10:47:00,
2013-09-12 06:52:00,69.3,66.9,29.85,SW,225,2.9,3.7,92,0.00,OVC,,0.05,WeatherDisplay:10.37,2013-09-12 10:52:00,
2013-09-12 06:57:00,69.4,67.0,29.85,South,180,3.0,4.6,92,0.00,OVC,,0.05,WeatherDisplay:10.37,2013-09-12 10:57:00,
2013-09-12 07:02:00,69.4,66.7,29.85,NNW,338,3.1,4.6,91,0.00,OVC,,0.05,WeatherDisplay:10.37,2013-09-12 11:02:00,
2013-09-12 07:07:00,69.4,66.7,29.85,West,270,3.9,4.7,91,0.00,OVC,,0.05,WeatherDisplay:10.37,2013-09-12 11:07:00,
2013-09-12 07:12:00,69.4,66.7,29.85,SSW,202,1.4,3.5,91,0.00,OVC,,0.05,WeatherDisplay:10.37,2013-09-12 11:12:00,
2013-09-12 07:17:00,69.4,66.7,29.85,WSW,248,3.2,3.5,91,0.00,OVC,,0.05,WeatherDisplay:10.37,2013-09-12 11:17:00,
2013-09-12 07:22:00,69.4,66.7,29.85,West,270,3.0,4.6,91,0.00,OVC,,0.05,WeatherDisplay:10.37,2013-09-12 11:22:00,
2013-09-12 07:27:00,69.6,66.9,29.85,WNW,292,3.4,5.8,91,0.00,OVC,,0.05,WeatherDisplay:10.37,2013-09-12 11:27:00,
2013-09-12 07:32:00,69.6,66.9,29.85,West,270,2.9,4.6,91,0.00,OVC,,0.05,WeatherDisplay:10.37,2013-09-12 11:32:00,
2013-09-12 07:37:00,69.6,66.5,29.85,SW,225,4.0,5.8,90,0.00,OVC,,0.05,WeatherDisplay:10.37,2013-09-12 11:37:00,
2013-09-12 07:42:00,69.8,66.7,29.85,SSW,202,2.7,4.2,90,0.01,RA,,0.07,WeatherDisplay:10.37,2013-09-12 11:42:00,
2013-09-12 07:47:00,69.6,66.9,29.85,WSW,248,3.2,3.7,91,0.03,RA,,0.08,WeatherDisplay:10.37,2013-09-12 11:47:00,
2013-09-12 07:52:00,69.6,67.2,29.86,SSE,158,2.7,4.6,92,0.03,RA,,0.08,WeatherDisplay:10.37,2013-09-12 11:52:00,
2013-09-12 07:57:00,69.6,67.2,29.86,West,270,2.4,3.5,92,0.03,OVC,,0.08,WeatherDisplay:10.37,2013-09-12 11:57:00,
2013-09-12 08:02:00,69.6,67.2,29.86,SE,135,3.7,4.6,92,0.03,OVC,,0.08,WeatherDisplay:10.37,2013-09-12 12:02:00,
2013-09-12 08:07:00,69.6,67.2,29.86,SW,225,4.0,5.8,92,0.03,OVC,,0.08,WeatherDisplay:10.37,2013-09-12 12:07:00,
2013-09-12 08:12:00,69.8,67.4,29.86,WSW,248,3.6,5.8,92,0.03,OVC,,0.08,WeatherDisplay:10.37,2013-09-12 12:12:00,
2013-09-12 08:17:00,70.0,67.6,29.86,SW,225,3.9,5.8,92,0.03,OVC,,0.08,WeatherDisplay:10.37,2013-09-12 12:17:00,
2013-09-12 08:22:00,70.0,67.6,29.86,SSW,202,4.5,5.8,92,0.03,OVC,,0.08,WeatherDisplay:10.37,2013-09-12 12:22:00,
2013-09-12 08:27:00,70.2,67.8,29.84,SW,225,5.1,5.8,92,0.03,OVC,,0.08,WeatherDisplay:10.37,2013-09-12 12:27:00,
2013-09-12 08:32:00,70.2,67.8,29.84,West,270,3.1,4.6,92,0.03,OVC,,0.08,WeatherDisplay:10.37,2013-09-12 12:32:00,
2013-09-12 08:37:00,70.2,67.8,29.84,West,270,2.2,3.5,92,0.03,OVC,,0.08,WeatherDisplay:10.37,2013-09-12 12:37:00,
2013-09-12 08:42:00,70.3,67.9,29.85,West,270,3.0,3.5,92,0.02,-RA,,0.08,WeatherDisplay:10.37,2013-09-12 12:42:00,
2013-09-12 08:47:00,70.5,68.1,29.85,SW,225,5.1,6.9,92,0.00,-RA,,0.08,WeatherDisplay:10.37,2013-09-12 12:47:00,
2013-09-12 08:52:00,70.7,68.3,29.85,WSW,248,3.2,4.6,92,0.00,-RA,,0.08,WeatherDisplay:10.37,2013-09-12 12:52:00,
2013-09-12 08:57:00,71.1,68.7,29.85,SW,225,3.1,3.5,92,0.00,-RA,,0.08,WeatherDisplay:10.37,2013-09-12 12:57:00,
2013-09-12 09:02:00,71.1,68.7,29.84,SW,225,2.8,4.6,92,0.00,-RA,,0.08,WeatherDisplay:10.37,2013-09-12 13:02:00,
2013-09-12 09:07:00,71.1,68.7,29.84,West,270,4.4,5.8,92,0.00,-RA,,0.08,WeatherDisplay:10.37,2013-09-12 13:07:00,
2013-09-12 09:12:00,71.1,69.0,29.84,WSW,248,4.1,4.7,93,0.00,OVC,,0.08,WeatherDisplay:10.37,2013-09-12 13:12:00,
2013-09-12 09:17:00,71.1,69.0,29.84,West,270,4.4,5.8,93,0.00,OVC,,0.08,WeatherDisplay:10.37,2013-09-12 13:17:00,
2013-09-12 09:22:00,71.2,69.1,29.84,SW,225,6.3,6.9,93,0.00,OVC,,0.08,WeatherDisplay:10.37,2013-09-12 13:22:00,
2013-09-12 09:27:00,71.2,69.1,29.84,WSW,248,4.6,9.2,93,0.00,OVC,,0.08,WeatherDisplay:10.37,2013-09-12 13:27:00,
2013-09-12 09:32:00,71.2,69.1,29.84,West,270,3.9,8.1,93,0.00,OVC,,0.08,WeatherDisplay:10.37,2013-09-12 13:32:00,
2013-09-12 09:37:00,71.2,69.1,29.84,SSE,158,7.3,7.3,93,0.01,RA,,0.09,WeatherDisplay:10.37,2013-09-12 13:37:00,
2013-09-12 09:42:00,71.2,69.1,29.84,SSE,158,7.3,7.3,93,0.01,RA,,0.09,WeatherDisplay:10.37,2013-09-12 13:42:00,
2013-09-12 09:47:00,70.7,68.9,29.84,NW,315,6.5,6.9,94,0.04,RA,,0.12,WeatherDisplay:10.37,2013-09-12 13:47:00,
2013-09-12 09:52:00,70.5,68.7,29.84,West,270,3.8,5.8,94,0.06,RA,,0.14,WeatherDisplay:10.37,2013-09-12 13:52:00,
2013-09-12 09:57:00,70.5,69.0,29.84,West,270,4.0,5.8,95,0.07,RA,,0.15,WeatherDisplay:10.37,2013-09-12 13:57:00,
2013-09-12 10:02:00,70.3,68.8,29.83,SW,225,3.3,5.8,95,0.08,-RA,,0.16,WeatherDisplay:10.37,2013-09-12 14:02:00,
2013-09-12 10:07:00,70.3,68.8,29.83,West,270,3.4,4.7,95,0.09,-RA,,0.17,WeatherDisplay:10.37,2013-09-12 14:07:00,
2013-09-12 10:12:00,70.3,68.8,29.83,West,270,4.3,5.8,95,0.10,-RA,,0.18,WeatherDisplay:10.37,2013-09-12 14:12:00,
2013-09-12 10:17:00,70.2,68.7,29.83,WSW,248,4.4,4.6,95,0.10,-RA,,0.18,WeatherDisplay:10.37,2013-09-12 14:17:00,
2013-09-12 10:22:00,70.2,68.7,29.83,West,270,3.2,4.7,95,0.10,-RA,,0.18,WeatherDisplay:10.37,2013-09-12 14:22:00,
2013-09-12 10:27:00,70.2,68.7,29.83,West,270,3.0,3.7,95,0.10,-RA,,0.18,WeatherDisplay:10.37,2013-09-12 14:27:00,
2013-09-12 10:32:00,69.8,68.3,29.83,South,180,7.9,8.3,95,0.10,-RA,,0.18,WeatherDisplay:10.37,2013-09-12 14:32:00,
2013-09-12 10:37:00,69.6,67.5,29.83,NE,45,6.1,10.4,93,0.09,-RA,,0.18,WeatherDisplay:10.37,2013-09-12 14:37:00,
2013-09-12 10:42:00,69.6,66.9,29.83,South,180,6.3,6.9,91,0.09,BKN,,0.18,WeatherDisplay:10.37,2013-09-12 14:42:00,
2013-09-12 10:47:00,69.4,66.3,29.83,NNW,338,4.3,7.8,90,0.06,BKN,,0.18,WeatherDisplay:10.37,2013-09-12 14:47:00,
2013-09-12 10:52:00,69.4,66.0,29.82,SW,225,6.3,7.8,89,0.04,BKN,,0.18,WeatherDisplay:10.37,2013-09-12 14:52:00,
2013-09-12 10:57:00,69.6,66.2,29.82,West,270,5.2,6.8,89,0.03,BKN,,0.18,WeatherDisplay:10.37,2013-09-12 14:57:00,
2013-09-12 11:02:00,69.6,66.2,29.82,West,270,6.2,6.9,89,0.02,BKN,,0.18,WeatherDisplay:10.37,2013-09-12 15:02:00,
2013-09-12 11:07:00,69.6,66.5,29.82,WSW,248,5.2,5.8,90,0.01,BKN,,0.18,WeatherDisplay:10.37,2013-09-12 15:07:00,
2013-09-12 11:12:00,69.6,66.9,29.82,SW,225,6.3,6.9,91,0.00,OVC,,0.18,WeatherDisplay:10.37,2013-09-12 15:12:00,
2013-09-12 11:17:00,69.8,66.7,29.82,West,270,6.0,6.9,90,0.00,OVC,,0.18,WeatherDisplay:10.37,2013-09-12 15:17:00,
2013-09-12 11:22:00,70.5,66.8,29.82,West,270,4.8,5.8,88,0.00,OVC,,0.18,WeatherDisplay:10.37,2013-09-12 15:22:00,
2013-09-12 11:27:00,71.4,67.0,29.82,West,270,5.6,6.3,86,0.00,OVC,,0.18,WeatherDisplay:10.37,2013-09-12 15:27:00,
2013-09-12 11:32:00,72.1,67.3,29.82,West,270,4.6,7.8,85,0.00,OVC,,0.18,WeatherDisplay:10.37,2013-09-12 15:32:00,
2013-09-12 11:37:00,71.8,66.4,29.82,WSW,248,5.6,10.4,83,0.00,OVC,,0.18,WeatherDisplay:10.37,2013-09-12 15:37:00,
2013-09-12 11:42:00,72.0,66.9,29.81,West,270,5.4,5.8,84,0.00,OVC,,0.18,WeatherDisplay:10.37,2013-09-12 15:42:00,
2013-09-12 11:47:00,72.0,66.6,29.81,SSW,202,8.9,10.4,83,0.00,OVC,,0.18,WeatherDisplay:10.37,2013-09-12 15:47:00,
2013-09-12 11:52:00,71.8,66.4,29.82,SW,225,5.3,5.8,83,0.00,OVC,,0.18,WeatherDisplay:10.37,2013-09-12 15:52:00,
2013-09-12 11:57:00,71.8,66.4,29.82,WSW,248,4.1,5.8,83,0.00,OVC,,0.18,WeatherDisplay:10.37,2013-09-12 15:57:00,
2013-09-12 12:02:00,71.8,66.4,29.81,WSW,248,6.5,9.4,83,0.00,OVC,,0.18,WeatherDisplay:10.37,2013-09-12 16:02:00,
2013-09-12 12:07:00,71.8,66.0,29.81,West,270,6.1,9.2,82,0.00,OVC,,0.18,WeatherDisplay:10.37,2013-09-12 16:07:00,
2013-09-12 12:12:00,71.6,65.8,29.81,SW,225,5.6,10.4,82,0.00,OVC,,0.18,WeatherDisplay:10.37,2013-09-12 16:12:00,
2013-09-12 12:17:00,71.6,66.2,29.81,ENE,68,5.5,6.8,83,0.00,OVC,,0.18,WeatherDisplay:10.37,2013-09-12 16:17:00,
2013-09-12 12:22:00,71.6,66.2,29.81,West,270,6.6,8.1,83,0.00,OVC,,0.18,WeatherDisplay:10.37,2013-09-12 16:22:00,
2013-09-12 12:27:00,71.6,66.5,29.80,South,180,8.7,10.4,84,0.00,OVC,,0.18,WeatherDisplay:10.37,2013-09-12 16:27:00,
2013-09-12 12:32:00,71.6,66.8,29.80,West,270,5.7,6.3,85,0.00,OVC,,0.18,WeatherDisplay:10.37,2013-09-12 16:32:00,
2013-09-12 12:37:00,71.6,66.8,29.80,West,270,6.3,6.3,85,0.00,OVC,,0.18,WeatherDisplay:10.37,2013-09-12 16:37:00,
2013-09-12 12:42:00,71.6,65.8,29.80,West,270,7.0,8.1,82,0.00,OVC,,0.18,WeatherDisplay:10.37,2013-09-12 16:42:00,
2013-09-12 12:47:00,71.6,65.8,29.80,WSW,248,5.2,6.9,82,0.00,OVC,,0.18,WeatherDisplay:10.37,2013-09-12 16:47:00,
2013-09-12 12:52:00,71.6,65.8,29.81,WSW,248,6.7,8.8,82,0.00,OVC,,0.18,WeatherDisplay:10.37,2013-09-12 16:52:00,
2013-09-12 12:57:00,71.4,65.6,29.81,WSW,248,5.8,9.4,82,0.00,OVC,,0.18,WeatherDisplay:10.37,2013-09-12 16:57:00,
2013-09-12 13:02:00,71.4,65.6,29.80,SSW,202,6.0,6.9,82,0.00,OVC,,0.18,WeatherDisplay:10.37,2013-09-12 17:02:00,
2013-09-12 13:07:00,71.6,65.8,29.80,West,270,3.0,4.7,82,0.00,OVC,,0.18,WeatherDisplay:10.37,2013-09-12 17:07:00,
2013-09-12 13:12:00,71.6,65.5,29.80,WSW,248,4.2,6.9,81,0.00,OVC,,0.18,WeatherDisplay:10.37,2013-09-12 17:12:00,
2013-09-12 13:17:00,71.6,65.5,29.80,WNW,292,4.8,6.9,81,0.00,OVC,,0.18,WeatherDisplay:10.37,2013-09-12 17:17:00,
2013-09-12 13:22:00,71.6,65.1,29.80,SW,225,6.6,6.9,80,0.00,OVC,,0.18,WeatherDisplay:10.37,2013-09-12 17:22:00,
2013-09-12 13:27:00,71.6,65.1,29.79,WSW,248,5.5,8.1,80,0.00,OVC,,0.18,WeatherDisplay:10.37,2013-09-12 17:27:00,
2013-09-12 13:32:00,71.8,65.3,29.79,West,270,3.7,5.8,80,0.00,OVC,,0.18,WeatherDisplay:10.37,2013-09-12 17:32:00,
2013-09-12 13:37:00,72.0,65.5,29.79,WSW,248,7.4,8.1,80,0.00,OVC,,0.18,WeatherDisplay:10.37,2013-09-12 17:37:00,
2013-09-12 13:42:00,72.0,65.5,29.79,West,270,6.7,8.1,80,0.00,OVC,,0.18,WeatherDisplay:10.37,2013-09-12 17:42:00,
2013-09-12 13:47:00,72.0,65.8,29.79,West,270,4.6,6.9,81,0.00,OVC,,0.18,WeatherDisplay:10.37,2013-09-12 17:47:00,
2013-09-12 13:52:00,72.0,66.2,29.80,SSW,202,3.6,4.7,82,0.00,OVC,,0.18,WeatherDisplay:10.37,2013-09-12 17:52:00,
2013-09-12 13:57:00,72.0,66.6,29.80,West,270,6.7,6.9,83,0.00,OVC,,0.18,WeatherDisplay:10.37,2013-09-12 17:57:00,
2013-09-12 14:02:00,71.8,66.7,29.78,WSW,248,6.6,10.4,84,0.00,OVC,,0.18,WeatherDisplay:10.37,2013-09-12 18:02:00,
2013-09-12 14:07:00,71.8,66.7,29.78,SW,225,8.6,10.4,84,0.00,OVC,,0.18,WeatherDisplay:10.37,2013-09-12 18:07:00,
2013-09-12 14:12:00,72.0,66.9,29.78,SSW,202,4.0,5.8,84,0.00,OVC,,0.18,WeatherDisplay:10.37,2013-09-12 18:12:00,
2013-09-12 14:17:00,72.1,66.6,29.78,SW,225,9.4,12.7,83,0.00,OVC,,0.18,WeatherDisplay:10.37,2013-09-12 18:17:00,
2013-09-12 14:22:00,72.9,67.1,29.78,SW,225,5.6,6.9,82,0.00,OVC,,0.18,WeatherDisplay:10.37,2013-09-12 18:22:00,
2013-09-12 14:27:00,73.2,67.0,29.78,South,180,7.7,9.2,81,0.00,OVC,,0.18,WeatherDisplay:10.37,2013-09-12 18:27:00,
2013-09-12 14:32:00,73.2,67.0,29.78,WSW,248,5.7,8.1,81,0.00,OVC,,0.18,WeatherDisplay:10.37,2013-09-12 18:32:00,
2013-09-12 14:37:00,72.7,66.9,29.78,SW,225,5.7,6.9,82,0.00,OVC,,0.18,WeatherDisplay:10.37,2013-09-12 18:37:00,
2013-09-12 14:42:00,72.9,67.1,29.78,SW,225,6.5,6.9,82,0.00,OVC,,0.18,WeatherDisplay:10.37,2013-09-12 18:42:00,
2013-09-12 14:47:00,72.7,66.9,29.78,West,270,6.8,9.2,82,0.00,OVC,,0.18,WeatherDisplay:10.37,2013-09-12 18:47:00,
2013-09-12 14:52:00,72.7,67.2,29.78,WSW,248,6.7,8.1,83,0.00,OVC,,0.18,WeatherDisplay:10.37,2013-09-12 18:52:00,
2013-09-12 14:57:00,72.7,67.2,29.78,SW,225,4.6,5.8,83,0.00,OVC,,0.18,WeatherDisplay:10.37,2013-09-12 18:57:00,
2013-09-12 15:02:00,72.5,67.4,29.78,SSW,202,7.2,8.1,84,0.00,OVC,,0.18,WeatherDisplay:10.37,2013-09-12 19:02:00,
2013-09-12 15:07:00,72.3,67.5,29.78,West,270,7.8,10.4,85,0.00,OVC,,0.18,WeatherDisplay:10.37,2013-09-12 19:07:00,
2013-09-12 15:12:00,72.5,67.7,29.78,WNW,292,8.9,9.2,85,0.00,OVC,,0.18,WeatherDisplay:10.37,2013-09-12 19:12:00,
2013-09-12 15:17:00,72.1,67.3,29.77,WSW,248,7.0,10.4,85,0.00,OVC,,0.18,WeatherDisplay:10.37,2013-09-12 19:17:00,
2013-09-12 15:22:00,72.3,67.5,29.77,SW,225,6.3,8.1,85,0.00,OVC,,0.18,WeatherDisplay:10.37,2013-09-12 19:22:00,
2013-09-12 15:27:00,72.5,67.4,29.76,SW,225,7.2,7.2,84,0.00,OVC,,0.18,WeatherDisplay:10.37,2013-09-12 19:27:00,
2013-09-12 15:32:00,72.5,67.4,29.76,West,270,7.4,9.9,84,0.00,OVC,,0.18,WeatherDisplay:10.37,2013-09-12 19:32:00,
2013-09-12 15:37:00,72.3,67.2,29.76,North,360,7.8,9.2,84,0.00,OVC,,0.18,WeatherDisplay:10.37,2013-09-12 19:37:00,
2013-09-12 15:42:00,72.3,67.2,29.75,WNW,292,7.8,10.4,84,0.00,OVC,,0.18,WeatherDisplay:10.37,2013-09-12 19:42:00,
2013-09-12 15:47:00,72.3,67.2,29.75,WSW,248,6.2,8.1,84,0.00,OVC,,0.18,WeatherDisplay:10.37,2013-09-12 19:47:00,
2013-09-12 15:52:00,72.1,67.0,29.75,SW,225,6.3,6.3,84,0.00,OVC,,0.18,WeatherDisplay:10.37,2013-09-12 19:52:00,
2013-09-12 15:57:00,72.3,67.2,29.75,West,270,8.2,9.2,84,0.00,OVC,,0.18,WeatherDisplay:10.37,2013-09-12 19:57:00,
2013-09-12 16:02:00,72.7,67.6,29.74,WSW,248,6.3,7.8,84,0.00,OVC,,0.18,WeatherDisplay:10.37,2013-09-12 20:02:00,
2013-09-12 16:07:00,72.7,67.6,29.74,WSW,248,7.6,9.2,84,0.00,OVC,,0.18,WeatherDisplay:10.37,2013-09-12 20:07:00,
2013-09-12 16:12:00,72.5,67.4,29.74,SSW,202,6.9,8.1,84,0.00,OVC,,0.18,WeatherDisplay:10.37,2013-09-12 20:12:00,
2013-09-12 16:17:00,72.5,67.4,29.74,SW,225,7.4,10.4,84,0.00,OVC,,0.18,WeatherDisplay:10.37,2013-09-12 20:17:00,
2013-09-12 16:22:00,72.5,67.4,29.74,West,270,6.3,6.9,84,0.00,OVC,,0.18,WeatherDisplay:10.37,2013-09-12 20:22:00,
2013-09-12 16:27:00,72.9,67.8,29.74,West,270,5.4,5.8,84,0.00,OVC,,0.18,WeatherDisplay:10.37,2013-09-12 20:27:00,
2013-09-12 16:32:00,73.0,67.5,29.74,West,270,7.5,10.4,83,0.00,OVC,,0.18,WeatherDisplay:10.37,2013-09-12 20:32:00,
2013-09-12 16:37:00,73.2,67.7,29.74,WSW,248,8.1,13.8,83,0.00,OVC,,0.18,WeatherDisplay:10.37,2013-09-12 20:37:00,
2013-09-12 16:42:00,72.7,67.2,29.74,SW,225,9.2,11.5,83,0.00,OVC,,0.18,WeatherDisplay:10.37,2013-09-12 20:42:00,
2013-09-12 16:47:00,72.5,67.0,29.74,SW,225,6.2,8.1,83,0.00,OVC,,0.18,WeatherDisplay:10.37,2013-09-12 20:47:00,
2013-09-12 16:52:00,72.5,67.0,29.73,WSW,248,9.0,11.5,83,0.00,OVC,,0.18,WeatherDisplay:10.37,2013-09-12 20:52:00,
2013-09-12 16:57:00,70.7,64.9,29.73,WNW,292,10.1,12.7,82,0.00,OVC,,0.18,WeatherDisplay:10.37,2013-09-12 20:57:00,
2013-09-12 17:02:00,68.5,63.8,29.74,ENE,68,5.6,8.1,85,0.01,RA,,0.19,WeatherDisplay:10.37,2013-09-12 21:02:00,
2013-09-12 17:07:00,67.8,63.8,29.74,SW,225,2.5,3.5,87,0.01,RA,,0.19,WeatherDisplay:10.37,2013-09-12 21:07:00,
2013-09-12 17:12:00,67.6,63.9,29.74,West,270,3.5,4.7,88,0.02,RA,,0.20,WeatherDisplay:10.37,2013-09-12 21:12:00,
2013-09-12 17:17:00,66.9,63.6,29.75,WSW,248,1.6,3.7,89,0.02,RA,,0.20,WeatherDisplay:10.37,2013-09-12 21:17:00,
2013-09-12 17:22:00,66.6,63.3,29.75,West,270,3.0,4.6,89,0.02,OVC,,0.20,WeatherDisplay:10.37,2013-09-12 21:22:00,
2013-09-12 17:27:00,66.4,63.1,29.74,SSW,202,3.3,4.6,89,0.02,OVC,,0.20,WeatherDisplay:10.37,2013-09-12 21:27:00,
2013-09-12 17:32:00,66.0,62.0,29.74,NNW,338,3.2,4.6,87,0.02,-RA,,0.20,WeatherDisplay:10.37,2013-09-12 21:32:00,
2013-09-12 17:37:00,65.8,61.8,29.75,West,270,2.5,2.5,87,0.02,-RA,,0.20,WeatherDisplay:10.37,2013-09-12 21:37:00,
2013-09-12 17:42:00,65.8,61.5,29.75,SW,225,2.8,3.5,86,0.02,-RA,,0.20,WeatherDisplay:10.37,2013-09-12 21:42:00,
2013-09-12 17:47:00,66.0,62.0,29.75,WSW,248,2.1,2.3,87,0.02,-RA,,0.20,WeatherDisplay:10.37,2013-09-12 21:47:00,
2013-09-12 17:52:00,66.4,62.1,29.75,SSW,202,1.0,2.3,86,0.02,-RA,,0.20,WeatherDisplay:10.37,2013-09-12 21:52:00,
2013-09-12 17:57:00,67.6,62.9,29.75,NNW,338,0.0,0.0,85,0.02,-RA,,0.20,WeatherDisplay:10.37,2013-09-12 21:57:00,
2013-09-12 18:02:00,68.9,63.5,29.75,ESE,112,0.0,0.0,83,0.01,BKN,,0.20,WeatherDisplay:10.37,2013-09-12 22:02:00,
2013-09-12 18:07:00,69.4,63.7,29.75,West,270,1.4,2.3,82,0.01,BKN,,0.20,WeatherDisplay:10.37,2013-09-12 22:07:00,
2013-09-12 18:12:00,69.4,63.7,29.75,WNW,292,2.9,4.2,82,0.00,BKN,,0.20,WeatherDisplay:10.37,2013-09-12 22:12:00,
2013-09-12 18:17:00,70.3,63.8,29.75,WNW,292,3.7,3.7,80,0.00,BKN,,0.20,WeatherDisplay:10.37,2013-09-12 22:17:00,
2013-09-12 18:22:00,71.4,64.2,29.75,West,270,1.8,3.5,78,0.00,BKN,,0.20,WeatherDisplay:10.37,2013-09-12 22:22:00,
2013-09-12 18:27:00,72.1,63.4,29.75,WSW,248,2.1,3.5,74,0.00,BKN,,0.20,WeatherDisplay:10.37,2013-09-12 22:27:00,
2013-09-12 18:32:00,72.7,63.5,29.75,West,270,2.5,3.2,73,0.00,BKN,,0.20,WeatherDisplay:10.37,2013-09-12 22:32:00,
2013-09-12 18:37:00,72.3,62.8,29.75,West,270,2.8,3.7,72,0.00,BKN,,0.20,WeatherDisplay:10.37,2013-09-12 22:37:00,
2013-09-12 18:42:00,72.0,62.9,29.75,WNW,292,2.0,2.3,73,0.00,BKN,,0.20,WeatherDisplay:10.37,2013-09-12 22:42:00,
2013-09-12 18:47:00,71.4,62.7,29.75,West,270,2.3,3.5,74,0.00,BKN,,0.20,WeatherDisplay:10.37,2013-09-12 22:47:00,
2013-09-12 18:52:00,71.6,62.5,29.75,WSW,248,1.6,2.3,73,0.00,BKN,,0.20,WeatherDisplay:10.37,2013-09-12 22:52:00,
2013-09-12 18:57:00,71.1,62.0,29.75,West,270,3.9,4.6,73,0.00,BKN,,0.20,WeatherDisplay:10.37,2013-09-12 22:57:00,
2013-09-12 19:02:00,70.3,61.6,29.76,West,270,3.3,3.7,74,0.00,BKN,,0.20,WeatherDisplay:10.37,2013-09-12 23:02:00,
2013-09-12 19:07:00,69.4,61.5,29.76,West,270,3.6,3.6,76,0.00,BKN,,0.20,WeatherDisplay:10.37,2013-09-12 23:07:00,
2013-09-12 19:12:00,68.9,61.4,29.76,West,270,2.9,3.5,77,0.00,BKN,,0.20,WeatherDisplay:10.37,2013-09-12 23:12:00,
2013-09-12 19:17:00,68.4,60.9,29.76,SW,225,2.1,2.3,77,0.00,BKN,,0.20,WeatherDisplay:10.37,2013-09-12 23:17:00,
2013-09-12 19:22:00,68.0,60.9,29.76,West,270,3.0,3.5,78,0.00,BKN,,0.20,WeatherDisplay:10.37,2013-09-12 23:22:00,
2013-09-12 19:27:00,67.5,60.8,29.76,SW,225,2.2,3.5,79,0.00,BKN,,0.20,WeatherDisplay:10.37,2013-09-12 23:27:00,
2013-09-12 19:32:00,67.1,60.7,29.76,SW,225,2.3,2.3,80,0.00,BKN,,0.20,WeatherDisplay:10.37,2013-09-12 23:32:00,
2013-09-12 19:37:00,66.6,60.6,29.76,SW,225,2.1,2.3,81,0.00,BKN,,0.20,WeatherDisplay:10.37,2013-09-12 23:37:00,
2013-09-12 19:42:00,66.2,60.2,29.76,West,270,1.3,2.3,81,0.00,BKN,,0.20,WeatherDisplay:10.37,2013-09-12 23:42:00,
2013-09-12 19:47:00,65.7,60.1,29.76,West,270,2.1,2.7,82,0.00,BKN,,0.20,WeatherDisplay:10.37,2013-09-12 23:47:00,
2013-09-12 19:52:00,65.3,59.7,29.76,West,270,1.7,2.3,82,0.00,BKN,,0.20,WeatherDisplay:10.37,2013-09-12 23:52:00,
2013-09-12 19:57:00,64.9,59.3,29.76,WSW,248,1.9,2.7,82,0.00,BKN,,0.20,WeatherDisplay:10.37,2013-09-12 23:57:00,
2013-09-12 20:02:00,64.8,59.2,29.76,West,270,2.6,2.7,82,0.00,BKN,,0.20,WeatherDisplay:10.37,2013-09-13 00:02:00,
2013-09-12 20:07:00,64.6,59.0,29.76,SSW,202,1.3,2.7,82,0.00,BKN,,0.20,WeatherDisplay:10.37,2013-09-13 00:07:00,
2013-09-12 20:12:00,64.6,58.6,29.76,WSW,248,2.7,3.5,81,0.00,BKN,,0.20,WeatherDisplay:10.37,2013-09-13 00:12:00,
2013-09-12 20:17:00,64.4,58.4,29.76,WSW,248,2.2,2.3,81,0.00,BKN,,0.20,WeatherDisplay:10.37,2013-09-13 00:17:00,
2013-09-12 20:22:00,64.4,58.1,29.76,SW,225,2.4,3.5,80,0.00,BKN,,0.20,WeatherDisplay:10.37,2013-09-13 00:22:00,
2013-09-12 20:27:00,64.4,58.1,29.77,SW,225,2.3,2.7,80,0.00,BKN,,0.20,WeatherDisplay:10.37,2013-09-13 00:27:00,
2013-09-12 20:32:00,64.4,58.1,29.77,West,270,1.3,2.3,80,0.00,BKN,,0.20,WeatherDisplay:10.37,2013-09-13 00:32:00,
2013-09-12 20:37:00,64.4,57.7,29.78,SW,225,2.9,3.5,79,0.00,BKN,,0.20,WeatherDisplay:10.37,2013-09-13 00:37:00,
2013-09-12 20:42:00,64.4,57.7,29.78,West,270,2.4,2.4,79,0.00,BKN,,0.20,WeatherDisplay:10.37,2013-09-13 00:42:00,
2013-09-12 20:47:00,64.4,57.7,29.78,WSW,248,2.3,3.5,79,0.00,BKN,,0.20,WeatherDisplay:10.37,2013-09-13 00:47:00,
2013-09-12 20:52:00,64.4,57.4,29.78,WNW,292,2.6,3.7,78,0.00,BKN,,0.20,WeatherDisplay:10.37,2013-09-13 00:52:00,
2013-09-12 20:57:00,64.4,57.0,29.78,NW,315,3.4,4.6,77,0.00,BKN,,0.20,WeatherDisplay:10.37,2013-09-13 00:57:00,
2013-09-12 21:02:00,64.6,57.2,29.78,WNW,292,4.4,4.6,77,0.00,BKN,,0.20,WeatherDisplay:10.37,2013-09-13 01:02:00,
2013-09-12 21:07:00,64.6,57.2,29.78,West,270,4.9,4.9,77,0.00,BKN,,0.20,WeatherDisplay:10.37,2013-09-13 01:07:00,
2013-09-12 21:12:00,64.4,57.0,29.78,West,270,4.0,5.8,77,0.00,BKN,,0.20,WeatherDisplay:10.37,2013-09-13 01:12:00,
2013-09-12 21:17:00,64.2,56.8,29.78,WSW,248,4.3,8.1,77,0.00,BKN,,0.20,WeatherDisplay:10.37,2013-09-13 01:17:00,
2013-09-12 21:22:00,64.2,56.8,29.78,West,270,3.1,4.6,77,0.00,BKN,,0.20,WeatherDisplay:10.37,2013-09-13 01:22:00,
2013-09-12 21:27:00,64.0,56.6,29.78,West,270,2.5,5.8,77,0.00,BKN,,0.20,WeatherDisplay:10.37,2013-09-13 01:27:00,
2013-09-12 21:32:00,63.9,56.9,29.78,West,270,3.0,4.2,78,0.00,BKN,,0.20,WeatherDisplay:10.37,2013-09-13 01:32:00,
2013-09-12 21:37:00,63.9,56.9,29.78,West,270,3.4,4.2,78,0.00,BKN,,0.20,WeatherDisplay:10.37,2013-09-13 01:37:00,
2013-09-12 21:42:00,63.9,56.9,29.78,SSW,202,3.1,3.5,78,0.00,BKN,,0.20,WeatherDisplay:10.37,2013-09-13 01:42:00,
2013-09-12 21:47:00,63.9,56.9,29.78,SW,225,3.1,4.6,78,0.00,BKN,,0.20,WeatherDisplay:10.37,2013-09-13 01:47:00,
2013-09-12 21:52:00,63.9,56.9,29.78,West,270,2.5,4.7,78,0.00,BKN,,0.20,WeatherDisplay:10.37,2013-09-13 01:52:00,
2013-09-12 21:57:00,64.2,56.8,29.78,WNW,292,3.9,4.6,77,0.00,BKN,,0.20,WeatherDisplay:10.37,2013-09-13 01:57:00,
2013-09-12 22:02:00,64.4,56.7,29.79,West,270,4.2,4.6,76,0.00,BKN,,0.20,WeatherDisplay:10.37,2013-09-13 02:02:00,
2013-09-12 22:07:00,64.4,56.7,29.79,West,270,3.8,5.3,76,0.00,BKN,,0.20,WeatherDisplay:10.37,2013-09-13 02:07:00,
2013-09-12 22:12:00,64.2,56.5,29.79,West,270,5.0,6.9,76,0.00,SCT,,0.20,WeatherDisplay:10.37,2013-09-13 02:12:00,
2013-09-12 22:17:00,64.0,56.3,29.78,WNW,292,3.5,4.6,76,0.00,SCT,,0.20,WeatherDisplay:10.37,2013-09-13 02:17:00,
2013-09-12 22:22:00,63.9,56.5,29.78,SW,225,3.4,5.8,77,0.00,SCT,,0.20,WeatherDisplay:10.37,2013-09-13 02:22:00,
2013-09-12 22:27:00,63.7,56.4,29.78,WSW,248,0.4,3.5,77,0.00,SCT,,0.20,WeatherDisplay:10.37,2013-09-13 02:27:00,
2013-09-12 22:32:00,63.3,56.3,29.78,WSW,248,2.4,3.2,78,0.00,SCT,,0.20,WeatherDisplay:10.37,2013-09-13 02:32:00,
2013-09-12 22:37:00,63.1,56.1,29.78,NNW,338,4.0,6.9,78,0.00,SCT,,0.20,WeatherDisplay:10.37,2013-09-13 02:37:00,
2013-09-12 22:42:00,62.8,55.8,29.78,SSW,202,1.3,4.6,78,0.00,SCT,,0.20,WeatherDisplay:10.37,2013-09-13 02:42:00,
2013-09-12 22:47:00,62.6,55.6,29.78,NNE,22,4.6,6.9,78,0.00,SCT,,0.20,WeatherDisplay:10.37,2013-09-13 02:47:00,
2013-09-12 22:52:00,62.6,55.6,29.77,WSW,248,3.4,6.9,78,0.00,SCT,,0.20,WeatherDisplay:10.37,2013-09-13 02:52:00,
2013-09-12 22:57:00,62.4,55.4,29.77,WSW,248,2.8,4.6,78,0.00,SCT,,0.20,WeatherDisplay:10.37,2013-09-13 02:57:00,
2013-09-12 23:02:00,62.4,55.4,29.77,SW,225,4.5,6.9,78,0.00,SCT,,0.20,WeatherDisplay:10.37,2013-09-13 03:02:00,
2013-09-12 23:07:00,62.1,55.2,29.77,South,180,3.6,4.6,78,0.00,SCT,,0.20,WeatherDisplay:10.37,2013-09-13 03:07:00,
2013-09-12 23:12:00,62.1,55.2,29.77,West,270,3.9,4.7,78,0.00,FEW,,0.20,WeatherDisplay:10.37,2013-09-13 03:12:00,
2013-09-12 23:17:00,61.9,55.0,29.77,SW,225,2.5,3.5,78,0.00,FEW,,0.20,WeatherDisplay:10.37,2013-09-13 03:17:00,
2013-09-12 23:22:00,61.9,55.0,29.77,West,270,4.3,4.7,78,0.00,FEW,,0.20,WeatherDisplay:10.37,2013-09-13 03:22:00,
2013-09-12 23:27:00,61.7,54.8,29.77,SW,225,2.4,3.5,78,0.00,FEW,,0.20,WeatherDisplay:10.37,2013-09-13 03:27:00,
2013-09-12 23:32:00,61.7,54.8,29.77,NNW,338,5.6,6.8,78,0.00,FEW,,0.20,WeatherDisplay:10.37,2013-09-13 03:32:00,
2013-09-12 23:37:00,61.7,54.8,29.77,West,270,3.4,4.2,78,0.00,FEW,,0.20,WeatherDisplay:10.37,2013-09-13 03:37:00,
2013-09-12 23:42:00,61.7,54.8,29.76,WNW,292,5.4,5.8,78,0.00,FEW,,0.20,WeatherDisplay:10.37,2013-09-13 03:42:00,
2013-09-12 23:47:00,61.5,54.6,29.76,NNW,338,3.0,3.5,78,0.00,FEW,,0.20,WeatherDisplay:10.37,2013-09-13 03:47:00,
2013-09-12 23:53:00,61.5,54.6,29.77,NNW,338,2.5,3.5,78,0.00,FEW,,0.20,WeatherDisplay:10.37,2013-09-13 03:53:00,
2013-09-12 23:58:00,61.3,54.4,29.77,SSW,202,1.8,2.3,78,0.00,FEW,,0.20,WeatherDisplay:10.37,2013-09-13 03:58:00,